SCP
-0 -0 -0 -0 -0 -0 -0 -0 -0 -0 -0 -0 -0 -0 -0 -0 -0 -0 -0 -0 -0 -0 -0 -0 -0 -0 0 0 0 0 0 0 0 0 0 0 -0 0 0 0 -0 -0 0
-0 -0 -0 -0 -0 -0 -0 -0 -0 -0 -0 -0 -0 -0 -0 -0 -0 -0 -0 -0 -0 -0 -0 -0 -0 -0 0 0 0 0 0 0 0 0 0 0 -0 0 -0 0 0 -0 0
-0 -0 -0 -0 -0 -0 -0 -0 -0 -0 -0 -0 -0 -0 -0 -0 -0 -0 -0 -0 -0 -0 -0 -0 -0 -0 -0 0 0 0 0 0 0 0 0 0 0 0 0 0 0 0 0
-0 -0 -0 0 -0 -0 -0 -0 -0 -0 -0 -0 -0 -0 -0 -0 -0 -0 -0 -0 -0 -0 -0 -0 -0 -0 -0 -0 0 0 0 0 0 0 0 0 0 0 0 0 0 0 0
0 0 0 0 0 0 0 -0 -0 -0 -0 -0 -0 -0 -0 -0 0 0 -0 -0 -0 -0 0 0 0 0 0 0 0 0 0 0 0 0 0 0 0 0 0 0 0 0 0
0 0 0 0 0 0 0 0 0 0 -0 0 0 0 0 0 0 0 0 0 0 0 0 0 0 0 0 0 0 0 0 0 0 0 0 0 0 0 0 0 0 0 0
0 0 0 0 0 0 0 0 0 0 0 0 0 0 0 0 0 0 0 0 0 0 0 0 0 0 0 0 0 0 0 0 0 0 0 0 0 0 0 0 0 0 0
0 0 0 0 0 0 0 0 0 0 0 0 0 0 0 0 0 0 0 0 0 0 0 0 0 0 0 0 0 0 0 0 0 0 0 0 0 0 0 0 0 0 0
0 0 0 0 0 0 0 0 0 0 0 0 0 0 0 0 0 0 0 0 0 0 0 0 0 0 0 0 0 0 0 0 0 0 0 0 0 0 0 0 0 0 0
0 0 0 0 0 0 0 0 0 0 0 0 0 0 0 0 0 0 0 0 0 0 0 0 0 0 0 0 0 0 0 0 0 0 0 0 0 0 0 0 0 0 0
0 0 0 0 0 0 0 0 0 0 0 0 0 0 0 0 0 0 0 0 0 0 0 0 0 0 0 -0 0 0 0 0 0 0 0 0 0 0 0 0 0 0 0
0 0 0 0 0 0 0 0 0 0 0 0 0 0 0 0 0 0 0 0 0 0 0 0 0 0 0 0 0 0 0 0 0 0 0 0 0 0 0 0 0 0 0
0 0 0 0 0 0 0 0 0 0 0 0 0 0 0 0 0 0 0 0 0 0 0 0 0 0 0 0 0 0 0 0 0 0 0 0 0 0 0 0 0 0 0
0 0 0 0 0 0 0 0 0 0 0 0 0 0 0 0 0 0 0 0 0 0 0 0 0 0 0 0 0 0 0 0 0 0 0 0 0 0 0 0 0 0 0
0 0 0 0 0 0 0 0 0 0 0 0 0 0 0 0 0 0 0 0 0 0 0 0 0 0 0 0 0 0 0 0 0 0 0 0 0 0 0 0 0 0 0
0 0 0 0 0 0 0 0 0 0 0 0 0 0 0 0 0 0 0 0 0 0 0 0 0 0 -0 -0 0 0 0 0 0 0 0 0 0 0 0 0 0 0 0
0 0 0 0 0 0 0 0 0 0 0 0 0 0 0 0 0 0 0 0 0 0 0 0 0 -0 -0 -0 -0 0 0 0 0 0 0 0 0 0 0 0 0 0 0
0 0 0 0 0 0 0 0 0 0 0 0 0 0 0 0 0 0 0 0 0 0 0 0 0 -0 -0 -0 -0 -0 0 0 0 0 0 0 0 0 0 0 0 0 0
0 0 0 0 0 0 0 0 0 0 0 0 0 0 0 0 0 0 0 0 0 0 0 0 0 0 0 -0 -0 0 0 0 0 0 0 0 0 0 0 0 0 0 0
0 0 0 0 0 0 0 0 0 0 0 0 0 0 0 0 0 0 0 0 0 0 0 0 0 0 0 0 0 0 0 0 0 -0 -0 -0 0 -0 0 0 0 0 0
0 0 0 0 0 0 0 0 0 0 0 0 0 0 0 0 0 0 0 0 0 0 -0 -0 0 0 0 0 0 0 0 -0 -0 -0 -0 -0 0 0 0 -0 -0 -0 0
0 0 0 0 0 0 0 0 0 0 0 0 0 0 0 0 0 0 0 0 0 0 -0 0 0 0 0 0 0 0 0 0 0 0 0 0 0 0 0 0 0 0 0
0 0 0 0 0 0 0 0 0 0 0 0 0 0 0 0 0 0 0 0 0 0 -0 0 0 0 0 0 0 0 0 0 0 -0 0 0 0 0 0 0 0 0 0
0 0 0 0 0 0 0 0 0 0 0 0 0 0 0 0 0 0 0 0 0 0 -0 0 0 0 0 0 0 0 0 0 0 -0 -0 0 0 -0 -0 0 -0 0 -0
0 0 0 0 0 0 0 0 0 0 0 0 0 0 0 0 0 0 0 0 0 0 0 0 0 0 0 0 0 0 0 0 0 0 0 -0 -0 -0 -0 -0 0 0 0
0 0 0 0 0 0 0 0 0 0 0 0 0 0 0 0 0 0 0 0 0 0 0 0 0 0 0 0 0 0 0 0 0 0 0 0 0 -0 0 0 0 0 0
Wind_Speed_500mb
10 6 5 8 10 8 7 5 4 3 6 8 7 8 8 8 7 10 14 15 16 17 17 16 17 20 19 17 18 18 18 18 20 21 20 22 21 19 19 20 18 15 15
14 8 7 4 3 7 8 10 9 10 12 13 15 16 16 18 18 20 21 22 22 22 23 23 24 23 25 25 22 21 21 22 23 23 24 25 21 22 23 21 20 16 15
15 8 7 3 4 7 8 12 15 15 16 18 18 17 16 18 20 22 22 23 24 25 26 28 30 31 33 32 32 30 25 24 24 25 24 23 23 25 27 25 20 19 17
17 13 7 6 6 6 10 13 16 17 19 20 22 22 22 23 23 25 26 26 28 28 28 30 30 32 34 34 36 37 36 33 31 27 24 19 11 25 33 27 25 21 20
18 16 11 4 4 4 7 9 12 15 17 20 22 24 26 27 29 29 31 31 32 33 35 37 38 39 39 39 38 39 39 40 40 34 24 24 21 19 29 31 27 26 24
18 11 4 5 2 2 4 7 9 10 12 14 15 16 17 18 20 23 26 30 34 37 40 41 43 43 42 44 44 44 45 44 42 40 34 24 31 24 29 33 29 29 28
20 16 15 10 6 6 7 7 9 10 12 13 13 15 17 19 21 22 25 27 29 31 35 39 41 44 46 47 48 51 50 45 45 42 42 39 33 34 38 36 32 33 33
25 23 19 14 12 11 8 7 8 9 10 11 12 13 15 16 18 21 23 26 28 30 32 36 41 45 46 47 50 52 50 48 47 46 42 41 44 44 37 40 40 36 38
30 27 23 20 16 14 11 11 11 10 11 11 11 10 11 13 16 21 26 30 33 36 37 38 38 40 40 44 48 50 50 52 53 51 46 43 37 47 46 39 44 45 40
39 35 32 28 21 17 15 16 15 13 12 9 9 11 13 16 21 24 29 32 36 39 42 44 44 42 39 40 41 45 48 46 44 53 49 29 40 49 54 48 45 49 51
45 42 37 30 24 22 21 19 17 17 14 12 11 13 14 16 19 21 25 29 33 36 37 38 40 41 43 45 43 41 40 42 48 49 52 55 58 61 57 54 55 52 54
51 48 41 35 31 29 27 23 22 20 17 14 13 12 11 13 15 20 24 29 33 35 36 35 35 36 38 39 41 41 40 41 42 45 49 51 61 62 66 66 58 59 59
49 51 48 43 39 35 32 27 27 23 20 19 17 14 13 14 16 20 24 29 33 35 36 35 34 35 36 38 39 41 43 43 44 45 47 53 57 60 65 68 68 65 64
50 54 53 51 45 42 36 34 32 28 25 22 18 16 16 17 19 23 27 31 36 37 37 38 38 39 41 42 43 42 44 46 48 49 50 50 52 55 60 67 69 71 70
55 56 59 57 51 46 42 40 36 32 28 24 21 19 18 18 21 24 28 34 39 42 42 42 42 42 43 44 46 48 49 50 50 51 55 55 52 53 55 58 63 69 72
60 60 61 60 56 51 47 43 39 34 29 25 22 20 18 21 23 26 31 36 42 45 46 45 47 50 51 52 52 53 57 57 56 57 58 58 59 57 54 55 59 62 68
65 58 63 62 58 54 50 45 42 36 32 28 25 23 22 22 25 28 32 38 43 46 48 48 48 51 55 56 59 61 61 61 64 64 63 62 60 60 61 57 57 58 63
63 65 64 63 62 57 53 49 45 40 37 33 29 25 23 24 26 30 34 39 43 46 47 48 50 56 60 64 68 70 71 73 72 68 70 64 61 59 59 61 62 63 60
66 63 68 67 64 60 58 53 49 45 41 38 32 28 26 27 28 31 35 38 41 44 46 47 51 57 62 69 75 77 79 78 80 73 58 53 55 55 55 55 55 59 63
63 64 68 70 68 65 63 59 54 50 47 43 37 32 31 33 32 33 36 39 40 42 43 48 55 57 62 68 74 80 80 83 62 52 59 49 45 50 67 76 73 68 66
65 68 72 72 72 72 70 65 59 57 53 48 42 38 36 35 34 35 36 40 43 44 43 46 50 55 58 61 68 76 88 54 71 50 46 40 48 78 70 64 73 87 80
73 75 74 72 74 76 74 68 64 59 57 52 48 43 41 39 38 37 38 41 44 43 41 43 48 53 55 49 55 61 40 64 7 28 56 71 66 61 80 68 65 76 83
76 77 79 79 80 82 78 73 69 63 58 55 53 50 45 41 39 39 40 42 44 43 39 44 50 51 51 51 46 34 24 25 83 41 45 53 47 55 81 89 84 87 91
70 70 72 78 83 83 81 81 75 69 64 58 55 52 47 42 39 39 41 44 43 44 42 46 47 49 52 52 48 47 43 47 30 83 79 70 88 76 72 105 106 102 101
60 64 70 77 85 87 86 83 78 73 67 61 60 54 48 43 41 42 43 43 44 44 40 47 51 53 55 56 55 55 56 56 50 47 102 131 98 96 92 102 120 127 126
58 63 71 76 85 85 87 85 83 78 72 68 63 56 50 44 44 45 42 41 43 46 46 52 58 63 65 66 66 65 65 61 53 47 64 120 125 134 114 126 132 124 120
Wind_Direction_500mb
186 199 188 170 191 188 193 159 223 216 223 223 235 249 258 266 280 279 278 284 295 307 318 326 334 326 322 326 322 309 297 295 297 294 287 288 291 298 306 311 311 307 302
176 192 195 168 207 226 228 226 230 242 243 247 252 262 268 272 274 282 284 288 288 293 298 304 307 310 309 308 312 314 309 296 289 289 290 289 291 292 292 297 306 308 279
171 181 193 193 241 254 247 253 260 255 257 266 269 270 274 276 279 281 287 291 295 294 294 293 294 297 299 301 301 303 303 300 291 285 289 295 311 294 288 284 295 297 288
177 189 200 199 243 251 255 255 261 260 261 265 269 274 276 275 279 282 287 287 288 288 287 286 288 292 291 295 296 297 298 299 298 297 290 283 270 279 284 279 287 290 287
186 202 207 216 253 263 273 279 274 276 277 272 272 273 274 280 282 285 286 286 288 290 291 291 290 289 292 291 292 293 292 290 292 297 305 300 279 263 283 282 276 284 279
198 213 193 166 140 3 327 314 311 311 304 306 308 300 296 295 295 293 291 293 293 292 290 289 289 290 290 290 289 286 285 287 290 289 285 285 292 282 263 275 274 273 277
202 202 195 202 213 246 273 287 296 301 307 307 309 306 307 307 304 300 297 294 292 292 291 290 289 286 282 280 281 282 285 289 288 289 288 287 280 280 269 269 271 270 269
205 203 208 219 225 241 251 273 280 280 283 287 292 294 299 303 308 310 311 313 312 309 305 302 297 294 294 291 284 280 281 282 283 283 282 282 281 280 280 270 269 266 267
209 208 216 223 229 241 253 264 266 272 279 289 297 307 318 324 331 335 336 335 334 331 327 322 316 312 304 294 288 287 284 279 280 282 285 280 280 276 272 271 265 266 262
211 212 216 220 226 237 250 261 267 274 278 292 307 324 334 340 345 343 336 334 331 329 327 324 322 319 315 310 304 297 291 288 284 274 271 280 267 265 271 266 265 263 264
217 219 222 224 228 235 240 245 252 261 269 277 298 316 326 333 333 333 335 332 328 323 319 319 320 321 322 320 318 314 304 293 284 279 276 275 268 271 272 268 264 262 260
221 223 223 225 226 231 234 235 237 235 235 244 255 266 285 302 319 330 334 334 329 322 316 315 315 316 317 316 316 316 314 307 297 290 283 273 272 273 276 274 270 262 259
223 225 225 227 229 231 233 236 237 233 232 236 240 254 276 298 313 321 323 324 324 320 316 316 318 318 319 319 318 317 315 311 308 301 291 287 284 278 276 274 272 268 261
215 222 223 226 226 228 229 229 229 229 233 238 247 264 279 294 305 312 315 319 322 325 324 324 325 324 322 320 317 314 312 310 308 304 299 296 291 287 281 276 272 267 264
216 220 223 225 226 227 226 227 229 231 232 238 249 261 272 284 301 311 314 319 323 326 326 326 325 324 322 320 320 319 315 311 308 305 302 300 297 293 287 282 277 271 265
217 221 222 223 224 224 224 225 226 229 233 239 250 264 280 295 304 309 316 320 322 325 324 327 329 329 328 326 323 320 317 314 310 307 304 301 299 295 291 289 282 277 270
223 218 222 222 222 223 224 225 228 230 236 245 254 264 279 289 297 306 315 318 321 324 326 329 330 329 327 325 323 322 318 315 313 309 305 301 297 295 293 288 285 282 275
221 219 221 221 222 223 225 227 230 232 236 240 245 255 266 279 293 305 312 316 321 322 324 326 328 328 326 325 324 322 320 318 315 312 308 301 296 291 289 289 287 282 277
220 216 221 221 223 223 226 226 229 233 235 239 241 250 265 279 289 298 305 312 316 319 320 323 326 326 325 325 324 321 319 317 318 313 307 303 295 293 293 293 292 285 279
216 216 221 222 222 223 226 227 229 231 234 238 240 250 263 273 283 294 304 310 314 314 319 325 325 324 324 323 319 317 317 319 312 312 309 302 300 307 304 302 298 294 286
212 213 220 220 221 224 225 226 228 232 234 236 239 247 259 271 280 291 300 306 312 316 321 322 321 320 321 322 321 319 322 331 324 310 301 291 289 297 296 300 304 304 299
216 221 221 221 222 226 228 229 231 233 233 235 238 246 256 267 277 289 300 306 309 311 315 319 318 317 318 321 320 325 323 319 309 264 282 284 290 290 293 290 294 291 292
217 223 223 225 227 229 229 227 228 230 232 234 238 245 254 264 278 292 300 303 303 304 313 315 313 312 311 314 316 312 323 305 312 325 293 291 290 288 294 295 292 292 290
220 223 228 228 229 230 229 229 230 234 234 236 238 242 252 267 279 289 294 296 302 304 313 311 307 307 309 310 307 306 295 290 312 313 303 291 299 300 293 296 295 291 293
219 223 228 228 229 231 231 231 231 230 231 231 237 242 253 264 276 283 288 296 300 300 304 303 304 307 307 303 301 296 291 289 281 270 295 302 297 296 300 296 296 295 293
220 222 229 230 231 231 233 231 231 231 230 232 236 242 251 264 273 281 289 292 294 298 304 305 305 305 303 298 296 293 289 285 279 269 275 290 296 298 295 293 294 295 290
Wind_Speed_850mb
10 6 5 8 10 8 7 5 4 3 6 8 7 8 8 8 7 10 14 15 16 17 17 16 17 20 19 17 18 18 18 18 20 21 20 22 21 19 19 20 18 15 15
14 8 7 4 3 7 8 10 9 10 12 13 15 16 16 18 18 20 21 22 22 22 23 23 24 23 25 25 22 21 21 22 23 23 24 25 21 22 23 21 20 16 15
15 8 7 3 4 7 8 12 15 15 16 18 18 17 16 18 20 22 22 23 24 25 26 28 30 31 33 32 32 30 25 24 24 25 24 23 23 25 27 25 20 19 17
17 13 7 6 6 6 10 13 16 17 19 20 22 22 22 23 23 25 26 26 28 28 28 30 30 32 34 34 36 37 36 33 31 27 24 19 11 25 33 27 25 21 20
18 16 11 4 4 4 7 9 12 15 17 20 22 24 26 27 29 29 31 31 32 33 35 37 38 39 39 39 38 39 39 40 40 34 24 24 21 19 29 31 27 26 24
18 11 4 5 2 2 4 7 9 10 12 14 15 16 17 18 20 23 26 30 34 37 40 41 43 43 42 44 44 44 45 44 42 40 34 24 31 24 29 33 29 29 28
20 16 15 10 6 6 7 7 9 10 12 13 13 15 17 19 21 22 25 27 29 31 35 39 41 44 46 47 48 51 50 45 45 42 42 39 33 34 38 36 32 33 33
25 23 19 14 12 11 8 7 8 9 10 11 12 13 15 16 18 21 23 26 28 30 32 36 41 45 46 47 50 52 50 48 47 46 42 41 44 44 37 40 40 36 38
30 27 23 20 16 14 11 11 11 10 11 11 11 10 11 13 16 21 26 30 33 36 37 38 38 40 40 44 48 50 50 52 53 51 46 43 37 47 46 39 44 45 40
39 35 32 28 21 17 15 16 15 13 12 9 9 11 13 16 21 24 29 32 36 39 42 44 44 42 39 40 41 45 48 46 44 53 49 29 40 49 54 48 45 49 51
45 42 37 30 24 22 21 19 17 17 14 12 11 13 14 16 19 21 25 29 33 36 37 38 40 41 43 45 43 41 40 42 48 49 52 55 58 61 57 54 55 52 54
51 48 41 35 31 29 27 23 22 20 17 14 13 12 11 13 15 20 24 29 33 35 36 35 35 36 38 39 41 41 40 41 42 45 49 51 61 62 66 66 58 59 59
49 51 48 43 39 35 32 27 27 23 20 19 17 14 13 14 16 20 24 29 33 35 36 35 34 35 36 38 39 41 43 43 44 45 47 53 57 60 65 68 68 65 64
50 54 53 51 45 42 36 34 32 28 25 22 18 16 16 17 19 23 27 31 36 37 37 38 38 39 41 42 43 42 44 46 48 49 50 50 52 55 60 67 69 71 70
55 56 59 57 51 46 42 40 36 32 28 24 21 19 18 18 21 24 28 34 39 42 42 42 42 42 43 44 46 48 49 50 50 51 55 55 52 53 55 58 63 69 72
60 60 61 60 56 51 47 43 39 34 29 25 22 20 18 21 23 26 31 36 42 45 46 45 47 50 51 52 52 53 57 57 56 57 58 58 59 57 54 55 59 62 68
65 58 63 62 58 54 50 45 42 36 32 28 25 23 22 22 25 28 32 38 43 46 48 48 48 51 55 56 59 61 61 61 64 64 63 62 60 60 61 57 57 58 63
63 65 64 63 62 57 53 49 45 40 37 33 29 25 23 24 26 30 34 39 43 46 47 48 50 56 60 64 68 70 71 73 72 68 70 64 61 59 59 61 62 63 60
66 63 68 67 64 60 58 53 49 45 41 38 32 28 26 27 28 31 35 38 41 44 46 47 51 57 62 69 75 77 79 78 80 73 58 53 55 55 55 55 55 59 63
63 64 68 70 68 65 63 59 54 50 47 43 37 32 31 33 32 33 36 39 40 42 43 48 55 57 62 68 74 80 80 83 62 52 59 49 45 50 67 76 73 68 66
65 68 72 72 72 72 70 65 59 57 53 48 42 38 36 35 34 35 36 40 43 44 43 46 50 55 58 61 68 76 88 54 71 50 46 40 48 78 70 64 73 87 80
73 75 74 72 74 76 74 68 64 59 57 52 48 43 41 39 38 37 38 41 44 43 41 43 48 53 55 49 55 61 40 64 7 28 56 71 66 61 80 68 65 76 83
76 77 79 79 80 82 78 73 69 63 58 55 53 50 45 41 39 39 40 42 44 43 39 44 50 51 51 51 46 34 24 25 83 41 45 53 47 55 81 89 84 87 91
70 70 72 78 83 83 81 81 75 69 64 58 55 52 47 42 39 39 41 44 43 44 42 46 47 49 52 52 48 47 43 47 30 83 79 70 88 76 72 105 106 102 101
60 64 70 77 85 87 86 83 78 73 67 61 60 54 48 43 41 42 43 43 44 44 40 47 51 53 55 56 55 55 56 56 50 47 102 131 98 96 92 102 120 127 126
58 63 71 76 85 85 87 85 83 78 72 68 63 56 50 44 44 45 42 41 43 46 46 52 58 63 65 66 66 65 65 61 53 47 64 120 125 134 114 126 132 124 120
Wind_Direction_850mb
186 199 188 170 191 188 193 159 223 216 223 223 235 249 258 266 280 279 278 284 295 307 318 326 334 326 322 326 322 309 297 295 297 294 287 288 291 298 306 311 311 307 302
176 192 195 168 207 226 228 226 230 242 243 247 252 262 268 272 274 282 284 288 288 293 298 304 307 310 309 308 312 314 309 296 289 289 290 289 291 292 292 297 306 308 279
171 181 193 193 241 254 247 253 260 255 257 266 269 270 274 276 279 281 287 291 295 294 294 293 294 297 299 301 301 303 303 300 291 285 289 295 311 294 288 284 295 297 288
177 189 200 199 243 251 255 255 261 260 261 265 269 274 276 275 279 282 287 287 288 288 287 286 288 292 291 295 296 297 298 299 298 297 290 283 270 279 284 279 287 290 287
186 202 207 216 253 263 273 279 274 276 277 272 272 273 274 280 282 285 286 286 288 290 291 291 290 289 292 291 292 293 292 290 292 297 305 300 279 263 283 282 276 284 279
198 213 193 166 140 3 327 314 311 311 304 306 308 300 296 295 295 293 291 293 293 292 290 289 289 290 290 290 289 286 285 287 290 289 285 285 292 282 263 275 274 273 277
202 202 195 202 213 246 273 287 296 301 307 307 309 306 307 307 304 300 297 294 292 292 291 290 289 286 282 280 281 282 285 289 288 289 288 287 280 280 269 269 271 270 269
205 203 208 219 225 241 251 273 280 280 283 287 292 294 299 303 308 310 311 313 312 309 305 302 297 294 294 291 284 280 281 282 283 283 282 282 281 280 280 270 269 266 267
209 208 216 223 229 241 253 264 266 272 279 289 297 307 318 324 331 335 336 335 334 331 327 322 316 312 304 294 288 287 284 279 280 282 285 280 280 276 272 271 265 266 262
211 212 216 220 226 237 250 261 267 274 278 292 307 324 334 340 345 343 336 334 331 329 327 324 322 319 315 310 304 297 291 288 284 274 271 280 267 265 271 266 265 263 264
217 219 222 224 228 235 240 245 252 261 269 277 298 316 326 333 333 333 335 332 328 323 319 319 320 321 322 320 318 314 304 293 284 279 276 275 268 271 272 268 264 262 260
221 223 223 225 226 231 234 235 237 235 235 244 255 266 285 302 319 330 334 334 329 322 316 315 315 316 317 316 316 316 314 307 297 290 283 273 272 273 276 274 270 262 259
223 225 225 227 229 231 233 236 237 233 232 236 240 254 276 298 313 321 323 324 324 320 316 316 318 318 319 319 318 317 315 311 308 301 291 287 284 278 276 274 272 268 261
215 222 223 226 226 228 229 229 229 229 233 238 247 264 279 294 305 312 315 319 322 325 324 324 325 324 322 320 317 314 312 310 308 304 299 296 291 287 281 276 272 267 264
216 220 223 225 226 227 226 227 229 231 232 238 249 261 272 284 301 311 314 319 323 326 326 326 325 324 322 320 320 319 315 311 308 305 302 300 297 293 287 282 277 271 265
217 221 222 223 224 224 224 225 226 229 233 239 250 264 280 295 304 309 316 320 322 325 324 327 329 329 328 326 323 320 317 314 310 307 304 301 299 295 291 289 282 277 270
223 218 222 222 222 223 224 225 228 230 236 245 254 264 279 289 297 306 315 318 321 324 326 329 330 329 327 325 323 322 318 315 313 309 305 301 297 295 293 288 285 282 275
221 219 221 221 222 223 225 227 230 232 236 240 245 255 266 279 293 305 312 316 321 322 324 326 328 328 326 325 324 322 320 318 315 312 308 301 296 291 289 289 287 282 277
220 216 221 221 223 223 226 226 229 233 235 239 241 250 265 279 289 298 305 312 316 319 320 323 326 326 325 325 324 321 319 317 318 313 307 303 295 293 293 293 292 285 279
216 216 221 222 222 223 226 227 229 231 234 238 240 250 263 273 283 294 304 310 314 314 319 325 325 324 324 323 319 317 317 319 312 312 309 302 300 307 304 302 298 294 286
212 213 220 220 221 224 225 226 228 232 234 236 239 247 259 271 280 291 300 306 312 316 321 322 321 320 321 322 321 319 322 331 324 310 301 291 289 297 296 300 304 304 299
216 221 221 221 222 226 228 229 231 233 233 235 238 246 256 267 277 289 300 306 309 311 315 319 318 317 318 321 320 325 323 319 309 264 282 284 290 290 293 290 294 291 292
217 223 223 225 227 229 229 227 228 230 232 234 238 245 254 264 278 292 300 303 303 304 313 315 313 312 311 314 316 312 323 305 312 325 293 291 290 288 294 295 292 292 290
220 223 228 228 229 230 229 229 230 234 234 236 238 242 252 267 279 289 294 296 302 304 313 311 307 307 309 310 307 306 295 290 312 313 303 291 299 300 293 296 295 291 293
219 223 228 228 229 231 231 231 231 230 231 231 237 242 253 264 276 283 288 296 300 300 304 303 304 307 307 303 301 296 291 289 281 270 295 302 297 296 300 296 296 295 293
220 222 229 230 231 231 233 231 231 231 230 232 236 242 251 264 273 281 289 292 294 298 304 305 305 305 303 298 296 293 289 285 279 269 275 290 296 298 295 293 294 295 290